Preview of NWS' New Version of Forecast
This preview is not operational and should not be used for support decisions.

Regional Weather Roundup (RWR)

Issued by National Weather Service (NWS)

                            
000
ASUS43 KDTX 230001
RWRMI 
MICHIGAN HOURLY REGIONAL WEATHER ROUNDUP
NATIONAL WEATHER SERVICE DETROIT/PONTIAC MI
800 PM EDT MON JUL 22 2019

NOTE: "FAIR" INDICATES FEW OR NO CLOUDS BELOW 12,000 FEET WITH NO
SIGNIFICANT WEATHER AND/OR OBSTRUCTION TO VISIBILITY.

MIZ047>049-052>055-059>063-066>070-074>076-081>083-230100-
SOUTHEAST LOWER MICHIGAN
  
CITY           SKY/WX    TMP DP  RH WIND       PRES   REMARKS
ADRIAN         FAIR      72  56  57 NE9       29.98S                  
6HR MIN TEMP:  72; 6HR MAX TEMP:  76;                                

ANN ARBOR        N/A    N/A N/A N/A MISG      29.97R                  
CARO           FAIR      72  47  41 CALM      29.98S                  
DETROIT CITY   FAIR      74  52  46 N9        29.96R                  
6HR MIN TEMP:  74; 6HR MAX TEMP:  78;                                

DETROIT        MOCLDY    74  54  49 N15       29.96R                  
6HR MIN TEMP:  74; 6HR MAX TEMP:  77;                                

FLINT          FAIR      74  53  48 N10       29.98R                  
6HR MIN TEMP:  73; 6HR MAX TEMP:  78;                                

HILLSDALE      FAIR      71  55  56 N7        30.00R                  
6HR MIN TEMP:  71; 6HR MAX TEMP:  74;                                

HOWELL         PTSUNNY   71  53  52 CALM      29.99R                  
6HR MIN TEMP:  71; 6HR MAX TEMP:  74;                                


CITY           SKY/WX    TMP DP  RH WIND       PRES   REMARKS
JACKSON        FAIR      74  56  53 N6        29.99R                  
6HR MIN TEMP:  72; 6HR MAX TEMP:  77;                                

LAMBERTVILLE   FAIR      73  59  60 N5        29.96R                  
LANSING        FAIR      75  50  41 N9        29.99S                  
6HR MIN TEMP:  72; 6HR MAX TEMP:  78;                                

LAPEER         FAIR      72  50  45 N5        29.99R                  
6HR MIN TEMP:  72; 6HR MAX TEMP:  76;                                

MASON          FAIR      73  58  60 NE9       29.99S                  
6HR MIN TEMP:  73; 6HR MAX TEMP:  76;                                

MONROE         MOCLDY    73  62  68 N9G16     29.95R                  
6HR MIN TEMP:  73; 6HR MAX TEMP:  78;                                

MT. CLEMENS    PTCLDY    73  54  49 N12       29.96R                  
PONTIAC        FAIR      72  51  47 N10       29.96R                  
6HR MIN TEMP:  70; 6HR MAX TEMP:  75;                                

PORT HOPE        N/A     71  54  54 VRB3      29.96S                  
6HR MIN TEMP:  70; 6HR MAX TEMP:  73;                                

PORT HURON     FAIR      72  46  40 N6        29.96S                  
TRI CITIES     FAIR      73  57  57 NE7       29.99S                  
6HR MIN TEMP:  73; 6HR MAX TEMP:  77;                                

MIDLAND        FAIR      73  58  60 NE3       29.99S                  
6HR MIN TEMP:  73; 6HR MAX TEMP:  80;                                

$$
MIZ043>046-050>051-056>058-064>065-071>073-077>080-230100-
SOUTHWEST LOWER MICHIGAN
  
CITY           SKY/WX    TMP DP  RH WIND       PRES   REMARKS
BATTLE CREEK   FAIR      75  55  49 N8        30.00S                  
6HR MIN TEMP:  73; 6HR MAX TEMP:  78;                                

BENTON HARBOR  FAIR      68  54  60 N8        30.04S                  
6HR MIN TEMP:  68; 6HR MAX TEMP:  71;                                

BIG RAPIDS     FAIR      72  47  40 N9        30.04R                  
6HR MIN TEMP:  72; 6HR MAX TEMP:  76; 6HR PCP:  0.03;                

HOLLAND        FAIR      72  54  53 NW10G22   30.04R                  
6HR MIN TEMP:  72; 6HR MAX TEMP:  77;                                

GRAND RAPIDS   FAIR      74  48  39 N12       30.02R                  
6HR MIN TEMP:  74; 6HR MAX TEMP:  79;                                

IONIA          FAIR     N/A N/A N/A NW6       30.00R                  
KALAMAZOO      FAIR      74  56  53 NW7       30.00R                  
6HR MIN TEMP:  74; 6HR MAX TEMP:  79;                                

MARSHALL       PTSUNNY   74  56  52 CALM      29.99S                  
6HR MIN TEMP:  73; 6HR MAX TEMP:  80;                                

MOUNT PLEASANT FAIR      73  48  41 NW6       30.00S                  
6HR MIN TEMP:  73; 6HR MAX TEMP:  78;                                

MUSKEGON       FAIR      74  47  38 N14       30.05R                  
6HR MIN TEMP:  74; 6HR MAX TEMP:  78;                                

SOUTH HAVEN    FAIR      69  54  59 N9        30.04R                  
$$
MIZ016>042-230100-
NORTHERN LOWER MICHIGAN
  
CITY           SKY/WX    TMP DP  RH WIND       PRES   REMARKS
ALPENA         FAIR      75  49  39 NW7       29.97S                  
6HR MIN TEMP:  75; 6HR MAX TEMP:  79;                                

BEAVER ISLAND  FAIR      69  49  49 NW6       30.04R                  
6HR MIN TEMP:  69; 6HR MAX TEMP:  75;                                

BELLAIRE       FAIR      73  52  46 CALM      30.03S                  
CADILLAC       FAIR      72  41  32 NW5       30.04S                  
CHARLEVOIX     FAIR      71  56  59 W10G16    30.05S                  
6HR MIN TEMP:  71; 6HR MAX TEMP:  76;                                

FRANKFORT      CLOUDY    72  52  49 CALM      30.05R                  
GAYLORD        FAIR      69  48  47 NW7       30.03R                  
6HR MIN TEMP:  69; 6HR MAX TEMP:  73;                                

HARBOR SPRINGS FAIR      70  56  61 W5        30.02R                  
HOUGHTON LAKE  FAIR      72  48  42 NW7       30.03R                  
6HR MIN TEMP:  72; 6HR MAX TEMP:  76;                                

MANISTEE       FAIR      71  53  52 W3        30.04S                  
PELLSTON       FAIR      71  53  52 NW10      30.02R                  
6HR MIN TEMP:  71; 6HR MAX TEMP:  77;                                

ROGERS CITY    FAIR      71  53  51 NW14G20   30.00R                  
TRAVERSE CITY  PTSUNNY   75  50  41 NW9       30.02R                  
6HR MIN TEMP:  74; 6HR MAX TEMP:  76;                                

$$
MIZ007>008-015-230100-
EASTERN UPPER MICHIGAN
  
CITY           SKY/WX    TMP DP  RH WIND       PRES   REMARKS
KINROSS        FAIR      67  46  47 NW13      30.01S                  
6HR MIN TEMP:  67; 6HR MAX TEMP:  76;                                

MACKINAC ISLAN FAIR      69  41  35 N8G16     30.01R                  
6HR MIN TEMP:  69; 6HR MAX TEMP:  74;                                

NEWBERRY       FAIR      67  41  38 NW8       30.02F                  
6HR MIN TEMP:  67; 6HR MAX TEMP:  78; 6HR PCP:  0.12;                

S. S. MARIE    FAIR      64  48  56 NW13G21   30.01R                  
6HR MIN TEMP:  64; 6HR MAX TEMP:  74;                                

MUNISING         N/A     69  51  52 NW6       30.04F                  
6HR MIN TEMP:  66; 6HR MAX TEMP:  69;                                

$$
MIZ004>006-011>014-085-230100-
CENTRAL UPPER MICHIGAN
  
CITY           SKY/WX    TMP DP  RH WIND       PRES   REMARKS
MANISTIQUE     FAIR      69  43  38 N9G20     30.04S                  
6HR MIN TEMP:  69; 6HR MAX TEMP:  80;                                

ESCANABA       FAIR      72  48  42 N8        30.05R                  
6HR MIN TEMP:  72; 6HR MAX TEMP:  79;                                

MENOMINEE      FAIR      75  50  41 N9        30.05R                  
6HR MIN TEMP:  74; 6HR MAX TEMP:  79;                                

SAWYER-GWINN   SUNNY     72  43  35 N9        30.06F                  
$$
MIZ001>003-009>011-084-230100-
WESTERN UPPER MICHIGAN
  
CITY           SKY/WX    TMP DP  RH WIND       PRES   REMARKS
IRON MOUNTAIN  FAIR      73  46  38 NW13      30.07S                  
6HR MIN TEMP:  73; 6HR MAX TEMP:  80;                                

HOUGHTON       FAIR      71  53  52 W13       30.06F                  
6HR MIN TEMP:  69; 6HR MAX TEMP:  73;                                

COPPER HARBOR    N/A     72  49  44 VRB6      30.03S                  
6HR MIN TEMP:  67; 6HR MAX TEMP:  75;                                

IRONWOOD       FAIR      72  55  55 NW6       30.11F                  
6HR MIN TEMP:  71; 6HR MAX TEMP:  74;                                

$$

ABBREVIATIONS USED IN REMARKS
   TC - TEMPERATURE IN CELSIUS
  WCI - WIND CHILL INDEX
   HX - HEAT INDEX
  VSB - VISIBILITY